This is the latest recevied weather packets stored in our database for station/object W6JCZ-13. If no packets are shown the sender has not sent any weather packets the latest 1 day(s).
| Time | Temp. | Humidity | Pressure | Rain* | Wind** | Luminosity | Snow |
|---|---|---|---|---|---|---|---|
| 1778020516 | 19.44° C | 68% | 1012.9 hPa | 0 mm | 0.45 m/s, 135° | - | - |
| 1778019916 | 19.44° C | 68% | 1013 hPa | 0 mm | 0.45 m/s, 135° | - | - |
| 1778015715 | 18.89° C | 69% | 1013.7 hPa | 0 mm | 0.45 m/s, 113° | - | - |
| 1778014516 | 18.89° C | 70% | 1013.7 hPa | 0 mm | 0.45 m/s, 113° | - | - |
| 1778004318 | 15° C | 82% | 1013.8 hPa | 0 mm | 0.45 m/s, 338° | - | - |
| 1778000117 | 13.89° C | 87% | 1013.8 hPa | 0 mm | 0.45 m/s, 0° | - | - |
| 1777982117 | 11.67° C | 91% | 1011.7 hPa | 0 mm | 0.45 m/s, 113° | - | - |
| 1777979116 | 11.67° C | 91% | 1011.9 hPa | 0 mm | 0.45 m/s, 135° | - | - |
| 1777977316 | 11.67° C | 91% | 1011.8 hPa | 0 mm | 0.45 m/s, 158° | - | - |
| 1777976716 | 11.67° C | 91% | 1011.9 hPa | 0 mm | 0.45 m/s, 180° | - | - |
| 1777976117 | 11.67° C | 91% | 1011.9 hPa | 0 mm | 0.45 m/s, 135° | - | - |
| 1777974317 | 11.67° C | 91% | 1011.9 hPa | 0 mm | 0.45 m/s, 135° | - | - |
| 1777973716 | 11.67° C | 91% | 1012.1 hPa | 0 mm | 0.45 m/s, 135° | - | - |
| 1777973117 | 11.67° C | 91% | 1012.5 hPa | 0 mm | 0.45 m/s, 135° | - | - |
| 1777972517 | 11.67° C | 91% | 1012.6 hPa | 0 mm | 0.45 m/s, 135° | - | - |
| 1777971917 | 11.67° C | 91% | 1012.7 hPa | 0 mm | 0.89 m/s, 135° | - | - |
| 1777971316 | 11.67° C | 91% | 1012.5 hPa | 0 mm | 0.89 m/s, 135° | - | - |
| 1777970717 | 12.22° C | 91% | 1012.2 hPa | 0 mm | 0.89 m/s, 135° | - | - |
| 1777970116 | 12.22° C | 91% | 1011.9 hPa | 0.25 mm | 0.89 m/s, 180° | - | - |
| 1777969516 | 12.22° C | 91% | 1012.4 hPa | 0.51 mm | 0.45 m/s, 135° | - | - |
| 1777968916 | 12.22° C | 91% | 1012.7 hPa | 0.76 mm | 0.45 m/s, 135° | - | - |
| 1777968317 | 12.22° C | 91% | 1012.6 hPa | 1.27 mm | 0.45 m/s, 135° | - | - |
| 1777967717 | 12.22° C | 91% | 1012.5 hPa | 1.27 mm | 0.45 m/s, 135° | - | - |
| 1777967117 | 12.22° C | 91% | 1013 hPa | 1.52 mm | 0.89 m/s, 135° | - | - |
| 1777966517 | 11.67° C | 91% | 1013 hPa | 1.27 mm | 0.45 m/s, 135° | - | - |
* Rain latest hour (hover to see other rain measurements)
** Current wind speed in m/s (hover to see current wind gust speed)